Weather History for KGPT - January, 2013

Change the Weather History Date:

Friday, January 4, 2013

  Actual Average Record
Temperature  
Mean Temperature 46 °F -  
Max Temperature 57 °F 60 °F 78 °F (2009)
Min Temperature 35 °F 42 °F 21 °F (2001)
Degree Days  
Heating Degree Days 19    
Moisture  
Dew Point 29 °F    
Average Humidity 55    
Maximum Humidity 80    
Minimum Humidity 31    
Precipitation  
Precipitation 0.00 in - - ()
Sea Level Pressure  
Sea Level Pressure 30.37 in    
Wind  
Wind Speed 7 mph (NNE)    
Max Wind Speed 13 mph    
Max Gust Speed 21 mph    
Visibility 10 miles    
Events      
Averages and records for this station are not official NWS values.
T = Trace of Precipitation, MM = Missing Value Source: NWS Daily Summary

Daily Weather History Graph

Daily Weather History Graph

Search for Another Location

Airport or City:

Trip Planner

Search our weather history database for the weather conditions in past years. The results will help you decide how hot, cold, wet, or windy it might be!

Date:

Astronomy

Jan. 04, 2013 Rise Set
Actual Time 6:53 AM CST 5:09 PM CST
Civil Twilight 6:27 AM CST 5:35 PM CST
Nautical Twilight 5:57 AM CST 6:05 PM CST
Astronomical Twilight 5:28 AM CST 6:34 PM CST
Moon No Moon Rise 11:08 AM CST (1/4)
Length of Visible Light 11h 08m
Length of Day
10h 15m
Waning Gibbous, 55% of the Moon is Illuminated
Jan 4
Waning Gibbous
Jan 4
Last Quarter
Jan 11
New
Jan 18
First Quarter
Jan 26
Full

Hourly Weather History & Observations

Time (CST) Temp. Windchill Dew Point Humidity Pressure Visibility Wind Dir Wind Speed Gust Speed Precip Events Conditions
12:53 AM 37.0 °F 31.6 °F 26.1 °F 65% 30.35 in 10.0 mi North 6.9 mph - N/A   Clear
1:53 AM 37.0 °F 32.4 °F 26.1 °F 65% 30.37 in 10.0 mi North 5.8 mph - N/A   Clear
2:53 AM 37.0 °F 31.6 °F 25.0 °F 62% 30.36 in 10.0 mi North 6.9 mph - N/A   Clear
3:53 AM 37.0 °F 31.6 °F 25.0 °F 62% 30.37 in 10.0 mi North 6.9 mph - N/A   Clear
4:53 AM 36.0 °F 29.6 °F 25.0 °F 64% 30.36 in 10.0 mi North 8.1 mph - N/A   Clear
5:53 AM 35.6 °F 29.9 °F 26.6 °F 70% 30.36 in 10.0 mi NNE 6.9 mph - N/A   Scattered Clouds
6:53 AM 35.6 °F 30.7 °F 26.6 °F 70% 30.39 in 10.0 mi NNE 5.8 mph - N/A   Clear
7:53 AM 36.0 °F 30.3 °F 27.0 °F 70% 30.42 in 10.0 mi North 6.9 mph - N/A   Clear
8:53 AM 39.0 °F 33.4 °F 27.0 °F 62% 30.44 in 10.0 mi North 8.1 mph - N/A   Clear
9:53 AM 46.9 °F - 27.0 °F 46% 30.43 in 10.0 mi NE 12.7 mph 20.7 mph N/A   Clear
10:53 AM 51.1 °F - 27.0 °F 39% 30.42 in 10.0 mi NE 8.1 mph - N/A   Clear
11:53 AM 54.0 °F - 27.0 °F 35% 30.38 in 10.0 mi NNE 8.1 mph - N/A   Clear
12:53 PM 55.9 °F - 26.1 °F 32% 30.35 in 10.0 mi North 9.2 mph - N/A   Clear
1:53 PM 57.9 °F - 27.0 °F 31% 30.34 in 10.0 mi NE 8.1 mph - N/A   Clear
2:53 PM 57.9 °F - 28.0 °F 32% 30.32 in 10.0 mi NNE 5.8 mph - N/A   Clear
3:53 PM 57.9 °F - 28.9 °F 33% 30.34 in 10.0 mi NNE 5.8 mph - N/A   Clear
4:53 PM 55.0 °F - 28.0 °F 35% 30.35 in 10.0 mi NE 5.8 mph - N/A   Clear
5:53 PM 48.0 °F - 39.9 °F 74% 30.37 in 10.0 mi Calm Calm - N/A   Clear
6:53 PM 45.0 °F - 39.0 °F 80% 30.38 in 10.0 mi Calm Calm - N/A   Clear
7:53 PM 46.9 °F - 39.0 °F 74% 30.39 in 10.0 mi Calm Calm - N/A   Overcast
8:53 PM 50.0 °F - 33.1 °F 52% 30.38 in 10.0 mi NE 4.6 mph - N/A   Overcast
9:53 PM 48.0 °F - 33.1 °F 56% 30.38 in 10.0 mi NE 4.6 mph - N/A   Clear
10:53 PM 46.9 °F - 33.1 °F 59% 30.35 in 10.0 mi NE 6.9 mph - N/A   Clear
11:53 PM 46.0 °F 43.1 °F 30.9 °F 56% 30.34 in 10.0 mi NE 5.8 mph - N/A   Clear